Location: Koslow
(50.3020°N, 18.5663°E)
Time: 20:08:09
(UTC+00:00)

X-37B - Pass Details

Date: 10 August 2021
Orbit: 381 x 393 km, 45.0° (Epoch: 29 August)

Event Time Altitude Azimuth Distance (km) Brightness Sun altitude
Exits shadow 02:50:37 - 255° (WSW) 1,633 3.1 -5.9°
Reaches altitude 10° 02:51:19 10° 248° (WSW) 1,397 2.7 -5.8°
Maximum altitude 02:53:43 20° 198° (SSW) 944 2.1 -5.5°
Drops below altitude 10° 02:56:07 10° 148° (SSE) 1,394 3.4 -5.2°
Sets 02:58:30 0° 131° (SE) 2,245 4.7 -4.9°
